Location: Six Mile Lake
(44.9000°N, 79.7170°W)
Time: 13:41:20
(UTC-04:00)

EO-79 - Pass Details

Date: 06 July 2022
Orbit: 588 x 603 km, 98.0° (Epoch: 18 August)

Event Time Altitude Azimuth Distance (km) Brightness Sun altitude
Rises 02:37:07 0° 19° (NNE) 2,861 ? -20.4°
Reaches altitude 10° 02:39:23 10° 27° (NNE) 1,955 ? -20.2°
Maximum altitude 02:43:26 42° 99° (E) 860 ? -20.0°
Enters shadow 02:44:47 32° 143° (SE) 1,041 ? -19.9°
